Gil Vicente — CSKG — position and weather

sailwx.info

Track history (hours):
 
Tides and Currents Weather Stations Pressure Air Temp Water Temp Dewpoint Dewpoint Depression Visibility Wind Speed Wind Dir Waves Ship Positions

Gil Vicente

Last reported at 2014-May-02 09:33 UTC. Time now 2014-Jul-28 06:14 UTC.
Position N 38°39' W 009°05'.
Warning: this ship's position is months out of date.

Length 49 m.

Type: Passenger vessel. MMSI: 263701390.

Date/timePositionNaut miles runAvg speedWind from/ knotsBaromVisibWave heightAir tempDewpointWater temp
2014-May-02 09:33N 38°39' W 009°05'1 0.9
2014-May-02 08:33N 38°39' W 009°06'3 2.9
2014-May-02 07:33N 38°42' W 009°08'0 0.5
2014-May-02 06:34N 38°42' W 009°08'0 0.0
2014-May-02 05:33N 38°42' W 009°08'0 0.0
2014-May-02 04:34N 38°42' W 009°08'4 4.2
2014-May-02 03:33N 38°39' W 009°05'0 0.0
2014-May-02 02:33N 38°39' W 009°05'0 0.0
2014-May-02 01:33N 38°39' W 009°05'0 0.3
2014-May-02 00:34N 38°39' W 009°05'0 0.2
2014-May-01 23:34N 38°39' W 009°05'0 0.1
2014-May-01 22:34N 38°39' W 009°05'1 1.1
2014-May-01 21:34N 38°40' W 009°06'0 0.0
2014-May-01 20:33N 38°40' W 009°06'0 0.2
2014-May-01 19:33N 38°40' W 009°07'1 1.1
2014-May-01 18:34N 38°41' W 009°08'0 0.3
2014-May-01 17:33N 38°41' W 009°08'0 0.2
2014-May-01 16:33N 38°41' W 009°08'1 0.8
2014-May-01 15:05N 38°40' W 009°07'2 3.1
2014-May-01 14:33N 38°41' W 009°08'3 3.1
2014-May-01 13:33N 38°39' W 009°05'0 0.0
2014-May-01 12:33N 38°39' W 009°05'2 1.7
2014-May-01 11:34N 38°40' W 009°07'0 0.3
2014-May-01 10:34N 38°40' W 009°06'0 0.2
2014-May-01 09:34N 38°40' W 009°07'0 0.0
2014-May-01 08:33N 38°40' W 009°07'0 0.1
2014-May-01 07:33N 38°40' W 009°07'0 0.0
2014-May-01 06:33N 38°40' W 009°07'1 1.2
2014-May-01 05:33N 38°41' W 009°08'1 0.8
2014-May-01 04:33N 38°42' W 009°08'3 1.1
2014-May-01 01:23N 38°39' W 009°05'0 0.5
2014-May-01 00:33N 38°39' W 009°05'0 0.1
2014-Apr-30 23:33N 38°39' W 009°05'0 0.1
2014-Apr-30 22:33N 38°39' W 009°05'1 1.3
2014-Apr-30 21:33N 38°40' W 009°06'0 0.0
2014-Apr-30 20:33N 38°40' W 009°06'1 1.4
2014-Apr-30 19:33N 38°39' W 009°05'0 0.1
2014-Apr-30 18:33N 38°39' W 009°05'1 1.0
2014-Apr-30 17:34N 38°39' W 009°06'3 3.0
2014-Apr-30 16:34N 38°42' W 009°08'4 3.8
2014-Apr-30 15:33N 38°39' W 009°05'0 0.0
2014-Apr-30 12:12N 38°39' W 009°05'0 0.0
2014-Apr-30 11:33N 38°39' W 009°05'0 0.0
2014-Apr-30 10:33N 38°39' W 009°05'0 0.1
2014-Apr-30 09:34N 38°39' W 009°05'1 0.6
2014-Apr-30 08:34N 38°39' W 009°06'0 0.5
2014-Apr-30 07:33N 38°39' W 009°05'0 0.4
2014-Apr-30 06:33N 38°39' W 009°05'0 0.0
2014-Apr-30 05:33N 38°39' W 009°05'0 0.0
2014-Apr-29 21:33N 38°39' W 009°05'0 0.0
2014-Apr-29 20:33N 38°39' W 009°05'0 0.0
2014-Apr-29 19:34N 38°39' W 009°05'3 3.3
2014-Apr-29 18:33N 38°41' W 009°08'1 1.4
2014-Apr-29 17:34N 38°40' W 009°07'2 2.2
2014-Apr-29 16:33N 38°39' W 009°05'0 0.0
2014-Apr-29 15:33N 38°39' W 009°05'0 0.0
2014-Apr-29 14:33N 38°39' W 009°05'0 0.0
2014-Apr-29 10:26N 38°39' W 009°05'1 1.3
2014-Apr-29 09:34N 38°40' W 009°06'0 0.5
2014-Apr-29 08:33N 38°39' W 009°06'3 3.2
2014-Apr-29 07:33N 38°42' W 009°08'0 0.4
2014-Apr-29 06:34N 38°42' W 009°08'4 0.4
2014-Apr-28 20:05N 38°39' W 009°05'3 6.4
2014-Apr-28 19:33N 38°42' W 009°08'3 2.9
2014-Apr-28 18:34N 38°39' W 009°06'3 3.0
2014-Apr-28 17:33N 38°42' W 009°08'0 0.5
2014-Apr-28 16:33N 38°42' W 009°08'1 0.7
2014-Apr-28 15:34N 38°42' W 009°08'4 3.6
2014-Apr-28 14:33N 38°39' W 009°05'2 2.2
2014-Apr-28 13:34N 38°40' W 009°07'1 0.7
2014-Apr-28 12:34N 38°40' W 009°06'0 0.1
2014-Apr-28 11:33N 38°40' W 009°06'0 0.4
2014-Apr-28 10:33N 38°40' W 009°06'1 1.1
2014-Apr-28 09:33N 38°39' W 009°05'0 0.0
2014-Apr-28 08:33N 38°39' W 009°05'0 0.1
2014-Apr-28 07:34N 38°39' W 009°05'1 1.2
2014-Apr-28 06:34N 38°40' W 009°06'1 0.1
2014-Apr-27 10:29N 38°39' W 009°05'1 1.4
2014-Apr-27 09:34N 38°40' W 009°06'0 0.1
2014-Apr-27 08:34N 38°40' W 009°06'0 0.2
2014-Apr-27 07:34N 38°40' W 009°06'0 0.4
2014-Apr-27 06:34N 38°39' W 009°06'2 2.2
2014-Apr-27 05:33N 38°41' W 009°08'0 0.4
2014-Apr-27 04:33N 38°41' W 009°08'3 3.4
2014-Apr-27 03:33N 38°39' W 009°05'0 0.0
2014-Apr-27 02:33N 38°39' W 009°05'0 0.0
2014-Apr-27 01:33N 38°39' W 009°05'0 0.3
2014-Apr-27 00:33N 38°39' W 009°05'0 0.0
2014-Apr-26 23:34N 38°39' W 009°05'0 0.2
2014-Apr-26 22:33N 38°39' W 009°05'1 0.9
2014-Apr-26 21:34N 38°40' W 009°06'0 0.4
2014-Apr-26 20:34N 38°40' W 009°07'0 0.1
2014-Apr-26 19:34N 38°40' W 009°07'1 0.8
2014-Apr-26 18:34N 38°40' W 009°07'0 0.5
2014-Apr-26 17:34N 38°41' W 009°08'0 0.0
2014-Apr-26 16:33N 38°41' W 009°08'0 0.2
2014-Apr-26 15:33N 38°41' W 009°08'0 0.2
2014-Apr-26 14:33N 38°41' W 009°08'3 2.8
2014-Apr-26 13:33N 38°39' W 009°05'0 0.0
2014-Apr-26 12:33N 38°39' W 009°05'1 1.4
2014-Apr-26 11:33N 38°40' W 009°06'0 0.0
2014-Apr-26 10:33N 38°40' W 009°06'1 1.3
2014-Apr-26 09:33N 38°39' W 009°05'4 0.1
2014-Apr-24 19:34N 38°42' W 009°08'0 0.2
2014-Apr-24 18:33N 38°42' W 009°08'1 1.1
2014-Apr-24 17:33N 38°41' W 009°08'3 2.6
2014-Apr-24 16:33N 38°39' W 009°06'3 3.3
2014-Apr-24 15:33N 38°42' W 009°08'1 1.0
2014-Apr-24 14:34N 38°41' W 009°08'0 0.2
2014-Apr-24 13:33N 38°41' W 009°08'0 0.1
2014-Apr-24 12:33N 38°41' W 009°08'0 0.1
2014-Apr-24 11:34N 38°41' W 009°08'0 0.2
2014-Apr-24 10:34N 38°41' W 009°08'3 2.9
2014-Apr-24 09:34N 38°39' W 009°05'2 2.4
2014-Apr-24 08:34N 38°40' W 009°08'2 2.2
2014-Apr-24 07:33N 38°42' W 009°08'1 1.1
2014-Apr-24 06:34N 38°41' W 009°08'3 3.1
2014-Apr-24 05:33N 38°39' W 009°05'0 0.0
2014-Apr-23 20:18N 38°39' W 009°05'3 4.0
2014-Apr-23 19:33N 38°41' W 009°08'2 2.4
2014-Apr-23 18:33N 38°39' W 009°06'3 3.1
2014-Apr-23 17:34N 38°42' W 009°08'0 0.5
2014-Apr-23 16:34N 38°42' W 009°08'1 0.7
2014-Apr-23 15:34N 38°42' W 009°08'4 3.6
2014-Apr-23 14:33N 38°39' W 009°05'2 1.7
2014-Apr-23 13:33N 38°40' W 009°07'0 0.3
2014-Apr-23 12:34N 38°40' W 009°06'1 1.3
2014-Apr-23 11:33N 38°39' W 009°05'0 0.0
2014-Apr-23 10:33N 38°39' W 009°05'3 2.8
2014-Apr-23 09:33N 38°41' W 009°08'3 2.9
2014-Apr-23 08:34N 38°39' W 009°05'1 0.8
2014-Apr-23 07:34N 38°39' W 009°06'3 3.3
2014-Apr-23 06:34N 38°42' W 009°08'0 0.3
2014-Apr-23 05:33N 38°42' W 009°08'0 0.0
2014-Apr-23 04:34N 38°42' W 009°08'4 4.2
2014-Apr-23 03:34N 38°39' W 009°05'0 0.0
2014-Apr-23 02:33N 38°39' W 009°05'0 0.0
2014-Apr-23 01:33N 38°39' W 009°05'0 0.4
2014-Apr-23 00:33N 38°39' W 009°05'0 0.0
2014-Apr-22 23:34N 38°39' W 009°05'0 0.5
2014-Apr-22 22:33N 38°39' W 009°05'2 1.7
2014-Apr-22 21:33N 38°40' W 009°07'0 0.0
2014-Apr-22 20:34N 38°40' W 009°07'2 1.7
2014-Apr-22 19:34N 38°39' W 009°05'0 0.0
2014-Apr-22 18:34N 38°39' W 009°05'1 0.9
2014-Apr-22 17:33N 38°39' W 009°06'3 3.3
2014-Apr-22 16:34N 38°42' W 009°08'4 3.9
2014-Apr-22 15:34N 38°39' W 009°05'  
Track history (hours):
 
Tides and Currents Weather Stations Pressure Air Temp Water Temp Dewpoint Dewpoint Depression Visibility Wind Speed Wind Dir Waves Ship Positions

Gil Vicente

Last reported at 2014-May-02 09:33 UTC. Time now 2014-Jul-28 06:14 UTC.
Position N 38°39' W 009°05'.
Warning: this ship's position is months out of date.

Length 49 m.

Type: Passenger vessel. MMSI: 263701390.

Date/timePositionNaut miles runAvg speedWind from/ knotsBaromVisibWave heightAir tempDewpointWater temp
2014-May-02 09:33N 38°39' W 009°05'1 0.9
2014-May-02 08:33N 38°39' W 009°06'3 2.9
2014-May-02 07:33N 38°42' W 009°08'0 0.5
2014-May-02 06:34N 38°42' W 009°08'0 0.0
2014-May-02 05:33N 38°42' W 009°08'0 0.0
2014-May-02 04:34N 38°42' W 009°08'4 4.2
2014-May-02 03:33N 38°39' W 009°05'0 0.0
2014-May-02 02:33N 38°39' W 009°05'0 0.0
2014-May-02 01:33N 38°39' W 009°05'0 0.3
2014-May-02 00:34N 38°39' W 009°05'0 0.2
2014-May-01 23:34N 38°39' W 009°05'0 0.1
2014-May-01 22:34N 38°39' W 009°05'1 1.1
2014-May-01 21:34N 38°40' W 009°06'0 0.0
2014-May-01 20:33N 38°40' W 009°06'0 0.2
2014-May-01 19:33N 38°40' W 009°07'1 1.1
2014-May-01 18:34N 38°41' W 009°08'0 0.3
2014-May-01 17:33N 38°41' W 009°08'0 0.2
2014-May-01 16:33N 38°41' W 009°08'1 0.8
2014-May-01 15:05N 38°40' W 009°07'2 3.1
2014-May-01 14:33N 38°41' W 009°08'3 3.1
2014-May-01 13:33N 38°39' W 009°05'0 0.0
2014-May-01 12:33N 38°39' W 009°05'2 1.7
2014-May-01 11:34N 38°40' W 009°07'0 0.3
2014-May-01 10:34N 38°40' W 009°06'0 0.2
2014-May-01 09:34N 38°40' W 009°07'0 0.0
2014-May-01 08:33N 38°40' W 009°07'0 0.1
2014-May-01 07:33N 38°40' W 009°07'0 0.0
2014-May-01 06:33N 38°40' W 009°07'1 1.2
2014-May-01 05:33N 38°41' W 009°08'1 0.8
2014-May-01 04:33N 38°42' W 009°08'3 1.1
2014-May-01 01:23N 38°39' W 009°05'0 0.5
2014-May-01 00:33N 38°39' W 009°05'0 0.1
2014-Apr-30 23:33N 38°39' W 009°05'0 0.1
2014-Apr-30 22:33N 38°39' W 009°05'1 1.3
2014-Apr-30 21:33N 38°40' W 009°06'0 0.0
2014-Apr-30 20:33N 38°40' W 009°06'1 1.4
2014-Apr-30 19:33N 38°39' W 009°05'0 0.1
2014-Apr-30 18:33N 38°39' W 009°05'1 1.0
2014-Apr-30 17:34N 38°39' W 009°06'3 3.0
2014-Apr-30 16:34N 38°42' W 009°08'4 3.8
2014-Apr-30 15:33N 38°39' W 009°05'0 0.0
2014-Apr-30 12:12N 38°39' W 009°05'0 0.0
2014-Apr-30 11:33N 38°39' W 009°05'0 0.0
2014-Apr-30 10:33N 38°39' W 009°05'0 0.1
2014-Apr-30 09:34N 38°39' W 009°05'1 0.6
2014-Apr-30 08:34N 38°39' W 009°06'0 0.5
2014-Apr-30 07:33N 38°39' W 009°05'0 0.4
2014-Apr-30 06:33N 38°39' W 009°05'0 0.0
2014-Apr-30 05:33N 38°39' W 009°05'0 0.0
2014-Apr-29 21:33N 38°39' W 009°05'0 0.0
2014-Apr-29 20:33N 38°39' W 009°05'0 0.0
2014-Apr-29 19:34N 38°39' W 009°05'3 3.3
2014-Apr-29 18:33N 38°41' W 009°08'1 1.4
2014-Apr-29 17:34N 38°40' W 009°07'2 2.2
2014-Apr-29 16:33N 38°39' W 009°05'0 0.0
2014-Apr-29 15:33N 38°39' W 009°05'0 0.0
2014-Apr-29 14:33N 38°39' W 009°05'0 0.0
2014-Apr-29 10:26N 38°39' W 009°05'1 1.3
2014-Apr-29 09:34N 38°40' W 009°06'0 0.5
2014-Apr-29 08:33N 38°39' W 009°06'3 3.2
2014-Apr-29 07:33N 38°42' W 009°08'0 0.4
2014-Apr-29 06:34N 38°42' W 009°08'4 0.4
2014-Apr-28 20:05N 38°39' W 009°05'3 6.4
2014-Apr-28 19:33N 38°42' W 009°08'3 2.9
2014-Apr-28 18:34N 38°39' W 009°06'3 3.0
2014-Apr-28 17:33N 38°42' W 009°08'0 0.5
2014-Apr-28 16:33N 38°42' W 009°08'1 0.7
2014-Apr-28 15:34N 38°42' W 009°08'4 3.6
2014-Apr-28 14:33N 38°39' W 009°05'2 2.2
2014-Apr-28 13:34N 38°40' W 009°07'1 0.7
2014-Apr-28 12:34N 38°40' W 009°06'0 0.1
2014-Apr-28 11:33N 38°40' W 009°06'0 0.4
2014-Apr-28 10:33N 38°40' W 009°06'1 1.1
2014-Apr-28 09:33N 38°39' W 009°05'0 0.0
2014-Apr-28 08:33N 38°39' W 009°05'0 0.1
2014-Apr-28 07:34N 38°39' W 009°05'1 1.2
2014-Apr-28 06:34N 38°40' W 009°06'1 0.1
2014-Apr-27 10:29N 38°39' W 009°05'1 1.4
2014-Apr-27 09:34N 38°40' W 009°06'0 0.1
2014-Apr-27 08:34N 38°40' W 009°06'0 0.2
2014-Apr-27 07:34N 38°40' W 009°06'0 0.4
2014-Apr-27 06:34N 38°39' W 009°06'2 2.2
2014-Apr-27 05:33N 38°41' W 009°08'0 0.4
2014-Apr-27 04:33N 38°41' W 009°08'3 3.4
2014-Apr-27 03:33N 38°39' W 009°05'0 0.0
2014-Apr-27 02:33N 38°39' W 009°05'0 0.0
2014-Apr-27 01:33N 38°39' W 009°05'0 0.3
2014-Apr-27 00:33N 38°39' W 009°05'0 0.0
2014-Apr-26 23:34N 38°39' W 009°05'0 0.2
2014-Apr-26 22:33N 38°39' W 009°05'1 0.9
2014-Apr-26 21:34N 38°40' W 009°06'0 0.4
2014-Apr-26 20:34N 38°40' W 009°07'0 0.1
2014-Apr-26 19:34N 38°40' W 009°07'1 0.8
2014-Apr-26 18:34N 38°40' W 009°07'0 0.5
2014-Apr-26 17:34N 38°41' W 009°08'0 0.0
2014-Apr-26 16:33N 38°41' W 009°08'0 0.2
2014-Apr-26 15:33N 38°41' W 009°08'0 0.2
2014-Apr-26 14:33N 38°41' W 009°08'3 2.8
2014-Apr-26 13:33N 38°39' W 009°05'0 0.0
2014-Apr-26 12:33N 38°39' W 009°05'1 1.4
2014-Apr-26 11:33N 38°40' W 009°06'0 0.0
2014-Apr-26 10:33N 38°40' W 009°06'1 1.3
2014-Apr-26 09:33N 38°39' W 009°05'4 0.1
2014-Apr-24 19:34N 38°42' W 009°08'0 0.2
2014-Apr-24 18:33N 38°42' W 009°08'1 1.1
2014-Apr-24 17:33N 38°41' W 009°08'3 2.6
2014-Apr-24 16:33N 38°39' W 009°06'3 3.3
2014-Apr-24 15:33N 38°42' W 009°08'1 1.0
2014-Apr-24 14:34N 38°41' W 009°08'0 0.2
2014-Apr-24 13:33N 38°41' W 009°08'0 0.1
2014-Apr-24 12:33N 38°41' W 009°08'0 0.1
2014-Apr-24 11:34N 38°41' W 009°08'0 0.2
2014-Apr-24 10:34N 38°41' W 009°08'3 2.9
2014-Apr-24 09:34N 38°39' W 009°05'2 2.4
2014-Apr-24 08:34N 38°40' W 009°08'2 2.2
2014-Apr-24 07:33N 38°42' W 009°08'1 1.1
2014-Apr-24 06:34N 38°41' W 009°08'3 3.1
2014-Apr-24 05:33N 38°39' W 009°05'0 0.0
2014-Apr-23 20:18N 38°39' W 009°05'3 4.0
2014-Apr-23 19:33N 38°41' W 009°08'2 2.4
2014-Apr-23 18:33N 38°39' W 009°06'3 3.1
2014-Apr-23 17:34N 38°42' W 009°08'0 0.5
2014-Apr-23 16:34N 38°42' W 009°08'1 0.7
2014-Apr-23 15:34N 38°42' W 009°08'4 3.6
2014-Apr-23 14:33N 38°39' W 009°05'2 1.7
2014-Apr-23 13:33N 38°40' W 009°07'0 0.3
2014-Apr-23 12:34N 38°40' W 009°06'1 1.3
2014-Apr-23 11:33N 38°39' W 009°05'0 0.0
2014-Apr-23 10:33N 38°39' W 009°05'3 2.8
2014-Apr-23 09:33N 38°41' W 009°08'3 2.9
2014-Apr-23 08:34N 38°39' W 009°05'1 0.8
2014-Apr-23 07:34N 38°39' W 009°06'3 3.3
2014-Apr-23 06:34N 38°42' W 009°08'0 0.3
2014-Apr-23 05:33N 38°42' W 009°08'0 0.0
2014-Apr-23 04:34N 38°42' W 009°08'4 4.2
2014-Apr-23 03:34N 38°39' W 009°05'0 0.0
2014-Apr-23 02:33N 38°39' W 009°05'0 0.0
2014-Apr-23 01:33N 38°39' W 009°05'0 0.4
2014-Apr-23 00:33N 38°39' W 009°05'0 0.0
2014-Apr-22 23:34N 38°39' W 009°05'0 0.5
2014-Apr-22 22:33N 38°39' W 009°05'2 1.7
2014-Apr-22 21:33N 38°40' W 009°07'0 0.0
2014-Apr-22 20:34N 38°40' W 009°07'2 1.7
2014-Apr-22 19:34N 38°39' W 009°05'0 0.0
2014-Apr-22 18:34N 38°39' W 009°05'1 0.9
2014-Apr-22 17:33N 38°39' W 009°06'3 3.3
2014-Apr-22 16:34N 38°42' W 009°08'4 3.9
2014-Apr-22 15:34N 38°39' W 009°05'  

Dump ship's entire track history